VOZ718 YPPH-YPAD

Flight info

Callsign VOZ718
Flight time 2h 30m
Altitude 37000
Route PH H18 BURGU Y135 DADRU Y39 ATNAR N640 AD
Aircraft A320/M-SDE3FGHIRWY/LB1

Departure

Time 2025-09-09 08:20
Airport Perth International Airport (YPPH)

Arrival

Time 2025-09-09 10:51
Airport Adelaide International Airport (YPAD)
Time Latitude Longitude Altitude Speed Heading
2025-09-09 08:06 -31.94426 115.96931 60 ft 0 kts 190°
2025-09-09 08:09 -31.94382 115.96963 59 ft 1 kts 221°
2025-09-09 08:09 -31.94377 115.96967 53 ft 0 kts 220°
2025-09-09 08:16 -31.94338 115.96803 55 ft 9 kts 290°
2025-09-09 08:16 -31.93993 115.96863 55 ft 25 kts 14°
2025-09-09 08:17 -31.93810 115.96919 54 ft 29 kts 14°
2025-09-09 08:17 -31.93395 115.97039 53 ft 32 kts 13°
2025-09-09 08:18 -31.92925 115.97149 54 ft 30 kts
2025-09-09 08:18 -31.92908 115.96992 54 ft 19 kts 277°
2025-09-09 08:19 -31.93012 115.96801 55 ft 30 kts 195°
2025-09-09 08:19 -31.94259 115.96439 61 ft 143 kts 194°
2025-09-09 08:20 -31.97378 115.95543 1643 ft 156 kts 191°
2025-09-09 08:20 -31.98498 115.95223 1922 ft 178 kts 191°
2025-09-09 08:21 -32.01208 115.94491 2562 ft 224 kts 181°
2025-09-09 08:21 -32.03743 115.96620 3682 ft 252 kts 114°
2025-09-09 08:22 -32.04722 116.00658 5488 ft 260 kts 103°
2025-09-09 08:22 -32.05514 116.04891 7168 ft 268 kts 104°
2025-09-09 08:23 -32.06663 116.09115 8705 ft 275 kts 116°
2025-09-09 08:23 -32.08331 116.13277 10211 ft 286 kts 117°
2025-09-09 08:24 -32.10159 116.17751 10893 ft 322 kts 117°
2025-09-09 08:24 -32.13198 116.25241 12456 ft 348 kts 117°
2025-09-09 08:25 -32.14243 116.27834 13096 ft 353 kts 117°
2025-09-09 08:25 -32.16378 116.33132 14356 ft 362 kts 117°
2025-09-09 08:26 -32.18557 116.38553 15531 ft 368 kts 116°
2025-09-09 08:26 -32.20771 116.44072 16665 ft 375 kts 117°
2025-09-09 08:27 -32.23418 116.49423 17804 ft 381 kts 124°
2025-09-09 08:27 -32.26261 116.54772 18933 ft 388 kts 124°
2025-09-09 08:28 -32.29147 116.60224 19999 ft 395 kts 123°
2025-09-09 08:28 -32.33561 116.68589 21560 ft 405 kts 123°
2025-09-09 08:29 -32.35056 116.71428 22050 ft 408 kts 123°
2025-09-09 08:29 -32.38081 116.77180 23034 ft 415 kts 123°
2025-09-09 08:30 -32.41138 116.82987 23952 ft 422 kts 123°
2025-09-09 08:30 -32.44252 116.88929 24733 ft 428 kts 123°
2025-09-09 08:31 -32.47407 116.94952 25516 ft 433 kts 123°
2025-09-09 08:33 -32.57787 117.21261 28324 ft 454 kts 109°
2025-09-09 08:35 -32.65828 117.50246 31096 ft 467 kts 109°
2025-09-09 08:37 -32.73861 117.79560 33947 ft 470 kts 109°
2025-09-09 08:39 -32.81958 118.09320 36079 ft 477 kts 109°
2025-09-09 08:41 -32.90094 118.39661 37415 ft 490 kts 109°
2025-09-09 08:43 -32.97137 118.71070 37409 ft 494 kts 91°
2025-09-09 08:45 -32.97944 119.03844 37422 ft 495 kts 91°
2025-09-09 08:47 -32.98625 119.35300 37411 ft 497 kts 91°
2025-09-09 08:49 -32.99266 119.68292 37429 ft 498 kts 91°
2025-09-09 08:51 -32.99821 120.01206 37413 ft 498 kts 91°
2025-09-09 08:53 -33.00289 120.34263 37407 ft 500 kts 91°
2025-09-09 08:55 -33.02881 120.67166 37423 ft 500 kts 101°
2025-09-09 08:57 -33.07696 120.99739 37412 ft 500 kts 101°
2025-09-09 08:58 -33.11868 121.28291 37413 ft 498 kts 101°
2025-09-09 09:01 -33.17131 121.65058 37415 ft 500 kts 101°
2025-09-09 09:03 -33.22092 121.97706 37404 ft 501 kts 104°
2025-09-09 09:05 -33.27830 122.30343 37412 ft 502 kts 103°
2025-09-09 09:07 -33.33418 122.63140 37424 ft 504 kts 104°
2025-09-09 09:09 -33.38932 122.96025 37396 ft 505 kts 104°
2025-09-09 09:11 -33.44353 123.29011 37393 ft 505 kts 104°
2025-09-09 09:13 -33.49690 123.61998 37391 ft 506 kts 103°
2025-09-09 09:14 -33.54309 123.91027 37378 ft 507 kts 104°
2025-09-09 09:17 -33.60152 124.28443 37381 ft 507 kts 103°
2025-09-09 09:19 -33.65267 124.61741 37380 ft 506 kts 103°
2025-09-09 09:21 -33.70245 124.94970 37388 ft 505 kts 103°
2025-09-09 09:23 -33.75141 125.28142 37360 ft 503 kts 103°
2025-09-09 09:25 -33.79928 125.61281 37352 ft 502 kts 103°
2025-09-09 09:26 -33.84041 125.90217 37358 ft 502 kts 102°
2025-09-09 09:29 -33.89233 126.27500 37344 ft 502 kts 102°
2025-09-09 09:31 -33.93724 126.60574 37331 ft 500 kts 102°
2025-09-09 09:33 -33.97946 126.92229 37324 ft 499 kts 102°
2025-09-09 09:35 -34.02256 127.25309 37320 ft 499 kts 101°
2025-09-09 09:37 -34.07014 127.62594 37309 ft 501 kts 101°
2025-09-09 09:39 -34.10640 127.91634 37292 ft 500 kts 101°
2025-09-09 09:41 -34.15208 128.29017 37264 ft 502 kts 101°
2025-09-09 09:43 -34.18681 128.58288 37277 ft 502 kts 101°
2025-09-09 09:45 -34.22583 128.91727 37267 ft 502 kts 100°
2025-09-09 09:46 -34.25912 129.20964 37247 ft 501 kts 100°
2025-09-09 09:49 -34.30080 129.58466 37227 ft 500 kts 100°
2025-09-09 09:50 -34.33238 129.87676 37205 ft 500 kts 99°
2025-09-09 09:53 -34.37205 130.25284 37185 ft 501 kts 99°
2025-09-09 09:54 -34.40212 130.54566 37181 ft 501 kts 99°
2025-09-09 09:57 -34.43959 130.92171 37157 ft 499 kts 98°
2025-09-09 09:59 -34.47189 131.25514 37126 ft 500 kts 98°
2025-09-09 10:01 -34.50728 131.63158 37106 ft 500 kts 98°
2025-09-09 10:03 -34.53398 131.92454 37103 ft 499 kts 97°
2025-09-09 10:05 -34.56742 132.30193 37101 ft 501 kts 96°
2025-09-09 10:07 -34.59261 132.59628 37109 ft 501 kts 96°
2025-09-09 10:09 -34.62057 132.93299 37110 ft 501 kts 96°
2025-09-09 10:11 -34.64772 133.26999 37094 ft 501 kts 95°
2025-09-09 10:13 -34.67369 133.60698 37102 ft 502 kts 95°
2025-09-09 10:15 -34.69899 133.94541 37092 ft 503 kts 94°
2025-09-09 10:17 -34.72239 134.27051 37070 ft 505 kts 93°
2025-09-09 10:18 -34.74299 134.56843 37075 ft 506 kts 93°
2025-09-09 10:21 -34.76863 134.95283 37090 ft 507 kts 92°
2025-09-09 10:23 -34.79023 135.29486 37055 ft 508 kts 92°
2025-09-09 10:25 -34.81101 135.63834 37054 ft 510 kts 92°
2025-09-09 10:27 -34.83079 135.98284 36120 ft 510 kts 91°
2025-09-09 10:29 -34.81425 136.32774 32801 ft 511 kts 82°
2025-09-09 10:31 -34.79553 136.66057 28388 ft 472 kts 82°
2025-09-09 10:33 -34.77755 136.96182 24592 ft 422 kts 84°
2025-09-09 10:33 -34.77339 137.03186 23818 ft 408 kts 84°
2025-09-09 10:34 -34.76925 137.09999 22781 ft 400 kts 84°
2025-09-09 10:34 -34.76517 137.16679 21888 ft 392 kts 84°
2025-09-09 10:35 -34.76103 137.23234 20971 ft 386 kts 84°
2025-09-09 10:35 -34.75895 137.26472 20503 ft 383 kts 84°
2025-09-09 10:36 -34.75288 137.36042 19084 ft 374 kts 84°
2025-09-09 10:36 -34.74890 137.42264 18106 ft 369 kts 84°
2025-09-09 10:37 -34.74495 137.48430 17162 ft 362 kts 83°
2025-09-09 10:37 -34.74107 137.54472 16227 ft 355 kts 83°
2025-09-09 10:38 -34.73718 137.60413 15289 ft 350 kts 83°
2025-09-09 10:38 -34.73750 137.66294 14375 ft 350 kts 99°
2025-09-09 10:38 -34.74399 137.69144 13914 ft 350 kts 105°
2025-09-09 10:39 -34.75807 137.74779 12937 ft 345 kts 105°
2025-09-09 10:40 -34.77845 137.83044 11567 ft 336 kts 105°
2025-09-09 10:40 -34.79174 137.88453 10614 ft 333 kts 105°
2025-09-09 10:41 -34.80471 137.93733 10122 ft 315 kts 105°
2025-09-09 10:41 -34.81676 137.98643 9616 ft 292 kts 104°
2025-09-09 10:42 -34.82801 138.03257 8702 ft 284 kts 104°
2025-09-09 10:42 -34.83913 138.07822 7966 ft 281 kts 105°
2025-09-09 10:42 -34.84462 138.10077 7717 ft 275 kts 105°
2025-09-09 10:43 -34.85884 138.14351 7102 ft 271 kts 124°
2025-09-09 10:44 -34.89352 138.19369 6613 ft 249 kts 129°
2025-09-09 10:44 -34.91549 138.22538 5613 ft 242 kts 129°
2025-09-09 10:45 -34.93709 138.25670 4511 ft 240 kts 129°
2025-09-09 10:45 -34.95829 138.28736 3662 ft 226 kts 129°
2025-09-09 10:46 -34.97617 138.31591 3440 ft 203 kts 123°
2025-09-09 10:46 -34.99184 138.34447 3255 ft 204 kts 124°
2025-09-09 10:46 -34.99979 138.35889 3071 ft 204 kts 124°
2025-09-09 10:47 -35.01649 138.42129 2022 ft 191 kts 80°
2025-09-09 10:48 -35.00535 138.44912 1500 ft 177 kts 53°
2025-09-09 10:48 -34.99059 138.47038 1052 ft 150 kts 56°
2025-09-09 10:49 -34.98412 138.47975 860 ft 141 kts 53°
2025-09-09 10:49 -34.97189 138.49752 506 ft 134 kts 52°
2025-09-09 10:50 -34.96002 138.51503 151 ft 134 kts 51°
2025-09-09 10:50 -34.94940 138.53050 23 ft 83 kts 50°
2025-09-09 10:50 -34.94676 138.53436 24 ft 41 kts 51°
2025-09-09 10:51 -34.94208 138.54023 27 ft 21 kts 343°
2025-09-09 10:52 -34.93987 138.53926 28 ft 17 kts 45°
2025-09-09 10:52 -34.93855 138.54080 27 ft 9 kts 340°
2025-09-09 10:53 -34.93828 138.54054 27 ft 0 kts 321°
2025-09-09 10:53 -34.93807 138.54032 27 ft 1 kts 320°
2025-09-09 10:54 -34.93804 138.54029 27 ft 0 kts 320°